Station 46084 (LLNR 1028) - CAPE EDGECUMBE - 25NM SSW of Cape Edgecumbe, AK Image indicating link to RSS feed of recent meteorological observations for station 46084


Conditions at 46084 as of
(7:00 am AKDT)
1500 GMT on 04/15/2024:
     

Click on the graph icon in the table below to see a time series plot of the last five days of that observation.

5-day plot - Wind Speed Wind Speed (WSPD): 11.7 kts
5-day plot - Wind Gust Wind Gust (GST): 17.5 kts
5-day plot - Atmospheric Pressure Atmospheric Pressure (PRES):30.26 in
5-day plot - Pressure Tendency Pressure Tendency (PTDY):+0.05 in ( Rising )
5-day plot - Water Temperature Water Temperature (WTMP): 44.2 °F
5-day plot - Wind Speed at 10 Meters Wind Speed at 10 meters (WSPD10M): 11.7 kts
5-day plot - Wind Speed at 20 Meters Wind Speed at 20 meters (WSPD20M): 11.7 kts
5-day plot -  Wind Speed, Wind Gust and Atmospheric Pressure Combined plot of Wind Speed, Gust, and Air Pressure
Supplemental Measurements
Highest 1-minute Wind Speed
Time (AKDT)5-day plot - 1-Minute Wind Speed WSPD 5-day plot - 1-Minute Wind Direction WDIR
6:51 am 13.6 kts-
Previous observations
TIME
(AKDT)
5-day plot - Wind Direction
WDIR
 
5-day plot - Wind Speed
WSPD
kts
5-day plot - Wind Gust
GST
kts
5-day plot - Wave Height
WVHT
ft
5-day plot - Dominant Wave Period
DPD
sec
5-day plot - Average Wave Period
APD
sec
5-day plot - Mean Wave Direction
MWD
 
5-day plot - Atmospheric Pressure
PRES
in
5-day plot - Pressure Tendency
PTDY
in
5-day plot - Air Temperature
ATMP
°F
5-day plot - Water Temperature
WTMP
°F
5-day plot - Dew Point
DEWP
°F
5-day plot - Salinity
SAL
psu
5-day plot - Visibility
VIS
nmi
5-day plot - Tide (above MLLW)
TIDE
ft
2024-04-15 06:50 am- 11.7 17.5 7.2 105.8WSW30.26-- 44.2----
2024-04-15 06:40 am- 11.7 17.5 7.2-5.8WSW30.25-- 44.2----
2024-04-15 06:30 am- 9.7 17.5----30.25-- 44.2----
2024-04-15 06:20 am- 11.7 17.5 6.9 95.7 W30.24-- 44.2----
2024-04-15 06:10 am- 11.7 17.5 6.9-5.7 W30.24-- 44.2----
2024-04-15 06:00 am- 11.7 19.4----30.24+0.05- 44.2----
2024-04-15 05:50 am- 11.7 17.5 6.6 95.5 W30.23-- 44.1----
2024-04-15 05:40 am- 11.7 17.5----30.23-- 44.1----
2024-04-15 05:30 am- 13.6 17.5----30.23-- 44.1----
2024-04-15 05:20 am- 11.7 19.4 6.9 95.6 W30.22-- 44.1----
2024-04-15 05:10 am- 13.6 19.4----30.22-- 44.1----
2024-04-15 05:00 am- 13.6 17.5----30.22+0.04- 44.2----
2024-04-15 04:50 am- 13.6 17.5 6.2 95.5 W30.22-- 44.1----
2024-04-15 04:40 am- 11.7 19.4 6.2-5.5 W30.21-- 44.2----
2024-04-15 04:30 am- 11.7 17.5----30.21-- 44.2----
2024-04-15 04:20 am- 11.7 17.5 6.6 95.7 W30.21-- 44.2----
2024-04-15 04:10 am- 11.7 17.5 6.6-5.7 W30.21-- 44.1----
2024-04-15 04:00 am- 13.6 19.4----30.21+0.05- 44.2----
2024-04-15 03:50 am- 13.6 19.4 6.6 105.7 W30.20-- 44.2----
2024-04-15 03:40 am- 13.6 19.4----30.20-- 44.2----
2024-04-15 03:30 am- 13.6 19.4----30.19-- 44.2----
2024-04-15 03:20 am- 11.7 17.5 6.6 95.8 W30.19-- 44.2----
2024-04-15 03:10 am- 11.7 15.5 6.6-5.8 W30.19-- 44.2----
2024-04-15 03:00 am- 11.7 17.5----30.19+0.05- 44.2----
2024-04-15 02:50 am- 11.7 17.5 6.2 96.1 W30.19-- 44.2----
2024-04-15 02:40 am- 9.7 15.5----30.19-- 44.2----
2024-04-15 02:30 am- 9.7 15.5----30.19-- 44.2----
2024-04-15 02:20 am- 11.7 17.5 6.2 96.0 W30.18-- 44.2----
2024-04-15 02:10 am- 11.7 15.5 6.2-6.0 W30.18-- 44.2----
2024-04-15 02:00 am- 11.7 17.5----30.18+0.05- 44.2----
2024-04-15 01:50 am- 7.8 17.5 6.6 96.1WNW30.17-- 44.2----
2024-04-15 01:40 am- 11.7 19.4----30.17-- 44.2----
2024-04-15 01:30 am- 7.8 15.5----30.17-- 44.2----
2024-04-15 01:20 am- 9.7 15.5 6.6 96.4 W30.16-- 44.2----
2024-04-15 01:10 am- 9.7 15.5 6.6-6.4 W30.16-- 44.2----
2024-04-15 01:00 am- 7.8 15.5----30.16+0.05- 44.2----
2024-04-15 12:50 am- 7.8 15.5 5.6 96.0 W30.16-- 44.4----
2024-04-15 12:40 am- 7.8 13.6----30.15-- 44.4----
2024-04-15 12:30 am- 7.8 13.6----30.15-- 44.4----
2024-04-15 12:20 am- 5.8 13.6 5.9 96.1 W30.15-- 44.4----
2024-04-15 12:10 am- 7.8 13.6 5.9-6.1 W30.15-- 44.4----
2024-04-15 12:00 am- 7.8 13.6----30.14+0.04- 44.4----
2024-04-14 11:50 pm- 7.8 13.6 6.2 96.4 W30.14-- 44.4----
2024-04-14 11:40 pm- 7.8 13.6----30.14-- 44.4----
2024-04-14 11:30 pm- 7.8 11.7----30.14-- 44.4----
2024-04-14 11:20 pm- 7.8 15.5 6.6 106.5WNW30.13-- 44.4----
2024-04-14 11:10 pm- 7.8 13.6 6.6-6.5WNW30.13-- 44.4----
2024-04-14 11:00 pm- 7.8 13.6----30.13+0.05- 44.4----
2024-04-14 10:50 pm- 7.8 15.5 6.6 96.4 W30.12-- 44.4----
2024-04-14 10:40 pm- 7.8 15.5----30.12-- 44.4----
2024-04-14 10:30 pm- 7.8 15.5----30.12-- 44.4----
2024-04-14 10:20 pm- 9.7 15.5 6.9 86.5 W30.12-- 44.4----
2024-04-14 10:10 pm- 7.8 13.6 6.9-6.5 W30.11-- 44.4----
2024-04-14 10:00 pm- 7.8 15.5----30.11+0.05- 44.4----
2024-04-14 09:50 pm- 7.8 13.6 7.5 97.0 W30.11-- 44.4----
2024-04-14 09:40 pm- 7.8 13.6----30.11-- 44.4----
2024-04-14 09:30 pm- 9.7 15.5----30.11-- 44.4----
2024-04-14 09:20 pm- 7.8 15.5 6.6 96.6 W30.11-- 44.4----
2024-04-14 09:10 pm- 7.8 15.5 6.6-6.6 W30.10-- 44.4----
2024-04-14 09:00 pm- 7.8 13.6----30.10+0.05- 44.4----
2024-04-14 08:50 pm- 7.8 15.5 6.9 86.8 W30.10-- 44.4----
2024-04-14 08:40 pm- 7.8 13.6 6.9-6.8 W30.09-- 44.4----
2024-04-14 08:30 pm- 7.8 15.5----30.09-- 44.4----
2024-04-14 08:20 pm- 7.8 13.6 6.9 86.7 W30.09-- 44.4----
2024-04-14 08:10 pm- 7.8 15.5 6.9-6.7 W30.08-- 44.4----
2024-04-14 08:00 pm- 7.8 13.6----30.08+0.04- 44.4----
2024-04-14 07:50 pm- 7.8 13.6 7.2 97.1 W30.07-- 44.4----
2024-04-14 07:40 pm- 7.8 13.6 7.2-7.1 W30.07-- 44.4----
2024-04-14 07:30 pm- 7.8 13.6----30.07-- 44.6----
2024-04-14 07:20 pm- 5.8 11.7 6.9 107.1WNW30.06-- 44.6----
2024-04-14 07:10 pm- 5.8 13.6 6.9-7.1WNW30.06-- 44.6----
2024-04-14 07:00 pm- 7.8 13.6----30.06+0.02- 44.6----
2024-04-14 06:50 pm- 7.8 13.6 6.9 107.2 W30.06-- 44.6----
2024-04-14 06:40 pm- 7.8 13.6----30.06-- 44.8----
2024-04-14 06:30 pm- 5.8 13.6----30.05-- 44.8----
2024-04-14 06:20 pm- 5.8 11.7 6.6 107.1 W30.05-- 44.8----
2024-04-14 06:10 pm- 5.8 13.6 6.6-7.1 W30.05-- 44.6----
2024-04-14 06:00 pm- 5.8 11.7----30.05+0.02- 44.6----
2024-04-14 05:50 pm- 5.8 11.7 7.2 97.3 W30.05-- 44.8----
2024-04-14 05:40 pm- 5.8 11.7 7.2-7.3 W30.05-- 44.8----
2024-04-14 05:30 pm- 5.8 11.7----30.05-- 44.6----
2024-04-14 05:20 pm- 3.9 11.7 6.9 97.3 W30.05-- 44.6----
2024-04-14 05:10 pm- 3.9 11.7 6.9-7.3 W30.04-- 44.6----
2024-04-14 05:00 pm- 5.8 11.7----30.04+0.02- 44.6----
2024-04-14 04:50 pm- 3.9 9.7 7.2 107.4 W30.04-- 44.8----
2024-04-14 04:40 pm- 3.9 9.7----30.04-- 44.8----
2024-04-14 04:30 pm- 3.9 9.7----30.03-- 44.8----
2024-04-14 04:20 pm- 1.9 7.8 6.9 107.5 W30.03-- 44.8----
2024-04-14 04:10 pm- 1.9 5.8----30.04-- 44.8----
2024-04-14 04:00 pm- 1.9 5.8----30.03+0.03- 44.8----
2024-04-14 03:50 pm- 1.9 5.8 6.9 107.4 W30.03-- 44.8----
2024-04-14 03:40 pm- 0.0 3.9----30.03-- 44.8----
2024-04-14 03:30 pm- 0.0 5.8----30.03-- 44.8----
2024-04-14 03:10 pm- 0.0 3.9 6.9-7.4 W30.03-- 44.8----
2024-04-14 03:00 pm- 0.0 5.8----30.03+0.04- 44.8----
2024-04-14 02:50 pm- 1.9 9.7 6.2 97.1 W30.03-- 44.8----
2024-04-14 02:40 pm- 1.9 11.7----30.02-- 44.8----
2024-04-14 02:30 pm- 1.9 5.8----30.02-- 44.8----
2024-04-14 02:20 pm- 0.0 5.8 6.9 107.2 W30.02-- 44.8----
2024-04-14 02:10 pm- 1.9 5.8 6.9-7.2 W30.02-- 44.8----
2024-04-14 02:00 pm- 1.9 3.9----30.02+0.04- 44.8----
2024-04-14 01:50 pm- 1.9 5.8 7.2 97.3 W30.02-- 44.8----
2024-04-14 01:40 pm- 1.9 5.8----30.02-- 44.8----
2024-04-14 01:30 pm- 1.9 3.9----30.01-- 44.8----
2024-04-14 01:20 pm- 0.0 3.9 7.5 107.5 W30.01-- 44.8----
2024-04-14 01:10 pm- 0.0 3.9 7.5-7.5 W30.01-- 44.8----
2024-04-14 01:00 pm- 0.0 3.9----30.01+0.04- 44.8----
2024-04-14 12:50 pm- 0.0 3.9 6.9 107.1 W30.01-- 44.8----
2024-04-14 12:40 pm- 0.0 3.9----30.00-- 44.8----
2024-04-14 12:30 pm- 0.0 3.9----30.00-- 44.8----
2024-04-14 12:20 pm- 0.0 1.9 7.5 107.2 W30.00-- 44.6----
2024-04-14 12:10 pm- 0.0 1.9----29.99-- 44.6----
2024-04-14 12:00 pm- 0.0 3.9----29.99+0.04- 44.6----
2024-04-14 11:50 am- 0.0 5.8 7.2 97.3 W29.99-- 44.6----
2024-04-14 11:40 am- 0.0 3.9----29.99-- 44.6----
2024-04-14 11:30 am- 1.9 5.8----29.99-- 44.6----
2024-04-14 11:20 am- 1.9 5.8 7.2 107.2 W29.98-- 44.6----
2024-04-14 11:10 am- 1.9 5.8 7.2-7.2 W29.98-- 44.6----
2024-04-14 11:00 am- 1.9 5.8----29.98+0.04- 44.6----
2024-04-14 10:50 am- 1.9 7.8 7.5 97.2WNW29.98-- 44.6----
2024-04-14 10:40 am- 1.9 7.8----29.97-- 44.6----
2024-04-14 10:30 am- 0.0 3.9----29.97-- 44.6----
2024-04-14 10:20 am- 0.0 3.9 7.9 87.1 W29.97-- 44.6----
2024-04-14 10:10 am- 0.0 1.9 7.9-7.1 W29.96-- 44.4----
2024-04-14 10:00 am- 0.0 1.9----29.96+0.02- 44.6----
2024-04-14 09:50 am- 0.0 1.9 8.2 107.4 W29.96-- 44.4----
2024-04-14 09:40 am- 0.0 1.9----29.96-- 44.4----
2024-04-14 09:30 am- 0.0 3.9----29.96-- 44.4----
2024-04-14 09:20 am- 0.0 1.9 8.5 107.5WSW29.95-- 44.4----
2024-04-14 09:10 am- 0.0 3.9 8.5-7.5WSW29.95-- 44.4----
2024-04-14 09:00 am- 0.0 1.9----29.95+0.01- 44.4----
2024-04-14 08:50 am- 0.0 3.9 8.5 117.4 W29.95-- 44.4----
2024-04-14 08:40 am- 0.0 1.9----29.95-- 44.2----
2024-04-14 08:30 am- 0.0 3.9----29.95-- 44.2----
2024-04-14 08:20 am- 1.9 5.8 8.2 97.4WSW29.94-- 44.2----
2024-04-14 08:10 am- 1.9 5.8 8.2-7.4WSW29.94-- 44.2----
2024-04-14 08:00 am- 1.9 3.9----29.94+0.01- 44.2----
2024-04-14 07:50 am- 1.9 5.8 8.2 97.4WSW29.94-- 44.2----
2024-04-14 07:40 am- 1.9 5.8----29.94-- 44.2----
2024-04-14 07:30 am- 1.9 5.8----29.94-- 44.2----
2024-04-14 07:20 am- 0.0 3.9 7.5 97.2WSW29.94-- 44.1----
2024-04-14 07:10 am- 1.9 5.8 7.5-7.2WSW29.94-- 44.1----
2024-04-14 07:00 am- 1.9 5.8----29.94+0.01- 44.1----
2024-04-14 06:50 am- 1.9 3.9 8.5 97.5 W29.94-- 44.2----

Detailed Wave Summary
for 46084 as of (6:40 am AKDT)
1440 GMT on 04/15/2024:

These wave data are displayed in rounded times.

     

Click on the graph icon in the table below to see a time series plot of the last five days of that observation.

5-day plot - Significant Wave Height Significant Wave Height (WVHT): 7.2 ft
5-day plot - Swell Height Swell Height (SwH): 5.9 ft
5-day plot - Swell Period Swell Period (SwP): 10.0 sec
5-day plot - Swell Direction Swell Direction (SwD):WSW
5-day plot - Wind Wave Height Wind Wave Height (WWH): 3.9 ft
5-day plot - Wind Wave Period Wind Wave Period (WWP): 4.8 sec
5-day plot - Wind Wave Direction Wind Wave Direction (WWD):NNW
5-day plot - Wave Steepness Wave Steepness (STEEPNESS): AVERAGE
5-day plot - Average Wave Period Average Wave Period (APD): 5.8 sec
Previous observations
TIME
(AKDT)
5-day plot - Wave Height
WVHT
ft
5-day plot - Swell Height
SwH
ft
5-day plot - Swell Period
SwP
sec
5-day plot - Swell Direction
SwD
 
5-day plot - Wind Wave Height
WWH
ft
5-day plot - Wind Wave Period
WWP
sec
5-day plot - Wind Wave Direction
WWD
 
5-day plot - Wave Steepness
STEEPNESS
 
5-day plot - Average Wave Period
APD
sec
2024-04-15 06:10 am 6.9 5.2 9.1 W 4.3 5.0 NW AVERAGE 5.7
2024-04-15 05:40 am 6.6 4.9 9.1 W 4.3 5.0 NW AVERAGE 5.5
2024-04-15 05:10 am 6.9 4.9 9.1 W 4.6 4.8 NW AVERAGE 5.6
2024-04-15 04:40 am 6.2 4.9 9.1 W 3.9 4.8 NW AVERAGE 5.5
2024-04-15 04:10 am 6.6 5.2 9.1 W 3.9 4.3 NW AVERAGE 5.7
2024-04-15 03:40 am 6.6 4.9 10.0 W 4.3 4.3 NW SWELL 5.7
2024-04-15 03:10 am 6.6 5.6 9.1 W 3.3 4.2 NW AVERAGE 5.8
2024-04-15 02:40 am 6.2 5.6 9.1 W 3.0 4.3 NW AVERAGE 6.1
2024-04-15 02:10 am 6.2 5.6 9.1 W 3.0 4.3 NW AVERAGE 6.0
2024-04-15 01:40 am 6.6 5.6 9.1WNW 3.3 5.9 W AVERAGE 6.1
2024-04-15 01:10 am 6.6 5.9 9.1 W 2.3 3.8 NW AVERAGE 6.4
2024-04-15 12:40 am 5.6 5.2 9.1 W 2.0 3.0 NW AVERAGE 6.0
2024-04-15 12:10 am 5.9 5.6 9.1 W 2.0 3.3 NW AVERAGE 6.1
2024-04-14 11:40 pm 6.2 5.9 9.1 W 2.0 3.7 NW AVERAGE 6.4
2024-04-14 11:10 pm 6.6 6.2 10.0WNW 2.0 3.6 NNW AVERAGE 6.5
2024-04-14 10:40 pm 6.6 6.2 9.1 W 2.3 3.6 NW AVERAGE 6.4
2024-04-14 10:10 pm 6.9 6.6 8.3 W 2.0 3.6 NNW AVERAGE 6.5
2024-04-14 09:40 pm 7.5 7.2 9.1 W 2.0 3.7 NW AVERAGE 7.0
2024-04-14 09:10 pm 6.6 6.2 9.1 W 2.0 3.2 NW AVERAGE 6.6
2024-04-14 08:40 pm 6.9 6.6 8.3 W 2.0 3.7 NW AVERAGE 6.8
2024-04-14 08:10 pm 6.9 6.6 8.3 W 2.0 3.2 NW AVERAGE 6.7
2024-04-14 07:40 pm 7.2 6.9 9.1 W 1.6 3.6 W AVERAGE 7.1
2024-04-14 07:10 pm 6.9 6.6 10.0WNW 1.6 4.0 SW AVERAGE 7.1
2024-04-14 06:40 pm 6.9 6.6 10.0 W 1.6 3.4 WNW AVERAGE 7.2
2024-04-14 06:10 pm 6.6 6.2 10.0 W 1.3 3.7 W SWELL 7.1
2024-04-14 05:40 pm 7.2 6.9 9.1 W 1.3 4.0 WSW AVERAGE 7.3
2024-04-14 05:10 pm 6.9 6.9 9.1 W 1.3 3.3 W AVERAGE 7.3
2024-04-14 04:40 pm 7.2 6.9 10.0 W 1.3 3.7 WSW AVERAGE 7.4
2024-04-14 04:10 pm 6.9 6.9 10.0 W 1.3 3.8 WSW AVERAGE 7.5
2024-04-14 03:40 pm 6.9 6.9 10.0 W 1.3 3.6 WSW AVERAGE 7.4
2024-04-14 03:10 pm 6.9 6.9 10.0 W 1.3 3.7 WSW AVERAGE 7.4
2024-04-14 02:40 pm 6.2 6.2 9.1 W 1.3 4.0 WSW AVERAGE 7.1
2024-04-14 02:10 pm 6.9 6.9 10.0 W 1.3 3.8 WSW AVERAGE 7.2
2024-04-14 01:40 pm 7.2 7.2 9.1 W 1.3 4.0 WSW AVERAGE 7.3
2024-04-14 01:10 pm 7.5 7.5 10.0 W 1.3 3.8 WSW AVERAGE 7.5
2024-04-14 12:40 pm 6.9 6.9 10.0 W 1.3 3.8 WSW AVERAGE 7.1
2024-04-14 12:10 pm 7.5 7.5 10.0 W 1.3 3.7 WSW AVERAGE 7.2
2024-04-14 11:40 am 7.2 7.2 9.1 W 1.3 3.7 WSW AVERAGE 7.3
2024-04-14 11:10 am 7.2 7.2 10.0 W 1.3 3.2 WSW AVERAGE 7.2
2024-04-14 10:40 am 7.5 7.2 9.1WNW 1.3 4.0 WSW AVERAGE 7.2
2024-04-14 10:10 am 7.9 7.9 8.3 W 1.6 3.6 SW STEEP 7.1
2024-04-14 09:40 am 8.2 8.2 10.0 W 1.3 3.6 WNW AVERAGE 7.4
2024-04-14 09:10 am 8.5 8.2 10.0WSW 1.6 3.8 SW AVERAGE 7.5
2024-04-14 08:40 am 8.5 8.2 10.8 W 1.6 3.8 SW SWELL 7.4
2024-04-14 08:10 am 8.2 8.2 9.1WSW 1.3 3.7 SW AVERAGE 7.4
2024-04-14 07:40 am 8.2 8.2 9.1WSW 1.6 3.7 SSW AVERAGE 7.4
2024-04-14 07:10 am 7.5 7.2 9.1WSW 1.3 3.7 SW AVERAGE 7.2

Plot of wave energy versus frequency (and period)